Flag for Germany Weather past 2 weeks in Lüdenscheid, North Rhine-Westphalia, Germany

Now
49 °F

Overcast.


Feels Like: 49 °F
Forecast: 44 / 54 °F
Wind: 2 mph from Southeast

Location: Koeln / Bonn

Current Time: May 29, 2015 at 5:20:23 AM

Latest Report: May 29, 2015 at 4:00 AM


Visibility: 25 mi

Pressure: 29.95 "Hg

Humidity: 92%

Dew point: 46 °F

Location of LüdenscheidLocation

Historic Weather in Lüdenscheid — Graph

°F

Lüdenscheid temperature yesterday

Maximum temperature yesterday: 67 °F (at 3:00 PM)
Minimum temperature yesterday: 52 °F (at 11:00 PM)
Average temperature yesterday: 59 °F

Past Weeks' High & Low Weather Summary

 TemperatureHumidityPressure
High73 °F (May 18, 4:00 PM)100% (May 17, 3:00 AM)30.34 "Hg (May 17, 3:00 AM)
Low40 °F (May 21, 6:00 AM)31% (May 14, 4:00 PM)29.66 "Hg (May 18, 8:00 PM)
Average55 °F68%30.07 "Hg
* Reported May 14 4:00 AM — May 29 4:00 AM, Lüdenscheid, Weather by CustomWeather, © 2015

Note: Actual official high and low records may vary slightly from our data, if they occured in-between our weather recording intervals... More about our weather records

Advertising

Lüdenscheid weather history for previous 24 hours

 ConditionsComfort  
Time TempWeatherWind HumidityBarometerVisibility
4:00 AM
Fri, May 29
49 °FOvercast.2 mph92%29.95 "Hg25 mi
3:00 AM51 °FOvercast.2 mph87%29.96 "Hg25 mi
2:00 AM51 °FOvercast.2 mph87%29.97 "Hg25 mi
1:00 AM52 °FPassing clouds.1 mph83%29.97 "Hg25 mi
11:00 PM
Thu, May 28
52 °FOvercast.1 mph85%29.98 "Hg25 mi
10:00 PM54 °FOvercast.2 mph79%29.97 "Hg25 mi
9:00 PM57 °FOvercast.6 mph74%29.96 "Hg31 mi
8:00 PM59 °FOvercast.5 mph67%29.94 "Hg34 mi
7:00 PM64 °FOvercast.6 mph49%29.93 "Hg25 mi
6:00 PM66 °FPartly sunny.8 mph48%29.93 "Hg31 mi
5:00 PM66 °FPartly sunny.9 mph49%29.94 "Hg31 mi
4:00 PM66 °FOvercast.8 mph47%29.94 "Hg31 mi
3:00 PM67 °FOvercast.8 mph44%29.94 "Hg31 mi
2:00 PM66 °FOvercast.6 mph41%29.94 "Hg37 mi
1:00 PM66 °FOvercast.7 mph45%29.94 "Hg37 mi
12:00 PM65 °FOvercast.6 mph56%29.95 "Hg28 mi
11:00 AM62 °FOvercast.5 mph59%29.98 "Hg25 mi
10:00 AM62 °FOvercast.5 mph59%29.98 "Hg25 mi
9:00 AM57 °FOvercast.3 mph63%30.00 "Hg25 mi
8:00 AM55 °FOvercast.5 mph63%30.00 "Hg25 mi
7:00 AM54 °FOvercast.3 mph64%30.01 "Hg25 mi
6:00 AM54 °FOvercast.6 mph63%30.01 "Hg25 mi
5:00 AM54 °FOvercast.5 mph62%30.02 "Hg25 mi
Weather by CustomWeather, © 2015

See weather overviewHow to use our weather pages